Satellite-Ground Cal/Val Region Overpasses Predictions

Prediction of Satellite NPP Overpassing Cal/Val Region: PacNW

Region Location: (Latitude: 10.00, Longitude: 139.50) to (Latitude: 22.70, Longitude: 165.60).

Table of predicted overpasses for the next 14.0 days since TLE Epoch: 4/17/2020
Interval Starting Time Starting Location Ending Time Ending Location
1 04/18/2020 03:04:24 ( 10.02, 153.53) 04/18/2020 03:08:00 ( 22.70, 150.51)
2 04/18/2020 15:36:16 ( 22.69, 150.77) 04/18/2020 15:39:52 ( 10.01, 147.75)
3 04/19/2020 02:45:22 ( 10.04, 158.28) 04/19/2020 02:48:57 ( 22.66, 155.28)
4 04/19/2020 15:17:15 ( 22.67, 155.52) 04/19/2020 15:20:50 ( 10.05, 152.52)
5 04/20/2020 02:26:20 ( 10.00, 163.05) 04/20/2020 02:29:56 ( 22.69, 160.03)
6 04/20/2020 14:58:13 ( 22.65, 160.27) 04/20/2020 15:01:48 ( 10.03, 157.27)
7 04/21/2020 02:09:58 ( 19.43, 165.59) 04/21/2020 02:10:53 ( 22.65, 164.80)
8 04/21/2020 03:48:48 ( 10.03, 142.42) 04/21/2020 03:52:17 ( 22.31, 139.51)
9 04/21/2020 14:39:11 ( 22.68, 165.04) 04/21/2020 14:42:47 ( 10.00, 162.02)
10 04/21/2020 16:20:41 ( 22.68, 139.66) 04/21/2020 16:20:52 ( 22.03, 139.50)
11 04/22/2020 03:29:47 ( 10.06, 147.18) 04/22/2020 03:33:22 ( 22.68, 144.17)
12 04/22/2020 16:01:39 ( 22.65, 144.42) 04/22/2020 16:05:14 ( 10.03, 141.41)
13 04/23/2020 03:10:44 ( 10.02, 151.94) 04/23/2020 03:14:19 ( 22.65, 148.94)
14 04/23/2020 15:42:37 ( 22.69, 149.18) 04/23/2020 15:46:13 ( 10.01, 146.17)
15 04/24/2020 02:51:43 ( 10.05, 156.70) 04/24/2020 02:55:18 ( 22.67, 153.69)
16 04/24/2020 15:23:35 ( 22.66, 153.93) 04/24/2020 15:27:10 ( 10.04, 150.93)
17 04/25/2020 02:32:40 ( 10.01, 161.46) 04/25/2020 02:36:16 ( 22.70, 158.44)
18 04/25/2020 15:04:33 ( 22.70, 158.70) 04/25/2020 15:08:09 ( 10.02, 155.68)
19 04/26/2020 02:14:25 ( 12.74, 165.59) 04/26/2020 02:17:14 ( 22.66, 163.21)
20 04/26/2020 03:55:09 ( 10.04, 140.84) 04/26/2020 03:56:47 ( 15.80, 139.50)
21 04/26/2020 14:45:32 ( 22.67, 163.45) 04/26/2020 14:49:07 ( 10.05, 160.45)
22 04/27/2020 03:36:06 ( 10.01, 145.60) 04/27/2020 03:39:42 ( 22.69, 142.59)
23 04/27/2020 14:29:36 ( 11.73, 165.59) 04/27/2020 14:30:05 ( 10.03, 165.20)
24 04/27/2020 16:08:00 ( 22.64, 142.83) 04/27/2020 16:11:35 ( 10.02, 139.83)
25 04/28/2020 03:17:05 ( 10.04, 150.36) 04/28/2020 03:20:40 ( 22.66, 147.35)
26 04/28/2020 15:48:58 ( 22.68, 147.60) 04/28/2020 15:52:33 ( 10.06, 144.59)
27 04/29/2020 02:58:02 ( 10.00, 155.12) 04/29/2020 03:01:38 ( 22.69, 152.10)
28 04/29/2020 15:29:56 ( 22.65, 152.35) 04/29/2020 15:33:31 ( 10.03, 149.35)
29 04/30/2020 02:39:01 ( 10.03, 159.87) 04/30/2020 02:42:36 ( 22.65, 156.87)
30 04/30/2020 15:10:54 ( 22.69, 157.11) 04/30/2020 15:14:30 ( 10.01, 154.10)
31 05/01/2020 02:19:59 ( 10.06, 164.63) 05/01/2020 02:23:34 ( 22.68, 161.62)


NCC Satellite Cal/Val Overpasses Prediction Service
